[[{"header":{"parameterUnit":"m.s-1","parameterCategory":1,"la1":30.2991,"la2":30.254,"lo1":-89.0895,"lo2":-89.0444,"dy":0.0017,"dx":0.0017,"nx":28,"ny":28,"refTime":"2024-02-01T09:00:00:Z","depth":0,"parameterNumber":2,"parameterNumberName":"U-component_of_WINDS"},"data":[0,0,0,0,0,0,0,0,0,0,0,0,0,0,0,0,0,0,0,0,0,0,0,0,0,0,0,0,0,0,0,0,0,0,0,0,0,0,0,0,0,0,0,0,0,0,0,0,0,0,0,0,0,0,0,0,0,0,-2.0435,-2.0436,0,-2.0483,-2.0483,-2.0484,-2.0411,-2.0409,-2.0406,-2.0404,-2.0458,-2.0461,-2.0465,0,0,0,0,0,0,0,0,0,0,0,0,0,-2.0286,-2.029,-2.0435,-2.0436,-2.0436,-2.0483,-2.0483,-2.0484,-2.0412,-2.0408,-2.0405,-2.0402,-2.0456,-2.0461,-2.0466,0,0,0,0,0,0,0,0,0,0,0,0,0,-2.0344,-2.0291,-2.0435,-2.0406,-2.0403,-2.0483,-2.0483,-2.0484,-2.0412,-2.0408,-2.0405,-2.0401,-2.0455,-2.0461,-2.0466,-2.0578,0,0,-2.0484,-2.0486,0,0,0,0,0,0,0,0,-2.0341,-2.035,-2.0409,-2.0408,-2.0406,-2.0437,-2.0451,-2.0516,-2.0413,-2.0409,-2.0403,-2.0399,-2.0454,-2.046,-2.0477,-2.0581,-2.0583,-2.0484,-2.0488,-2.049,-2.0492,0,0,0,0,0,0,0,-2.0337,-2.0348,-2.0454,-2.041,-2.0408,-2.0392,-2.0396,-2.0463,-2.0453,-2.0409,-2.0404,-2.041,-2.0453,-2.0472,-2.0478,-2.0584,-2.0484,-2.0489,-2.0493,-2.0495,-2.0781,-2.0785,0,0,0,0,0,0,-2.0336,-2.0345,-2.0453,-2.0456,-2.0363,-2.0397,-2.0402,-2.0431,-2.0452,-2.0451,-2.0413,-2.0407,-2.0464,-2.0471,-2.048,-2.0613,-2.049,-2.0495,-2.0499,-2.0777,-2.0782,-2.0787,0,0,0,0,0,0,-2.0333,-2.0346,-2.0451,-2.0399,-2.0411,-2.0404,-2.0437,-2.0434,-2.0453,-2.0455,-2.0453,-2.0435,-2.0461,-2.0472,-2.0554,-2.0613,-2.0498,-2.0503,-2.0772,-2.0779,-2.0785,-2.0879,0,0,0,0,0,0,-2.0329,-2.0346,-2.0387,-2.04,-2.0414,-2.0523,-2.0441,-2.0437,-2.0462,-2.0454,-2.0475,-2.0474,-2.0459,-2.0546,-2.056,-2.0619,-2.0508,-2.0767,-2.0775,-2.0783,-2.0871,-2.0888,-2.0902,0,0,0,0,0,-2.0324,-2.0413,-2.039,-2.0403,-2.0465,-2.0527,-2.0535,-2.0514,-2.0468,-2.051,-2.0511,-2.0474,-2.0604,-2.0555,-2.057,-2.0632,-2.0763,-2.0773,-2.0782,-2.0864,-2.0884,-2.0902,0,0,0,0,0,0,-2.0409,-2.0414,-2.0388,-2.0484,-2.0505,-2.0514,-2.0567,-2.0536,-2.0573,-2.0564,-2.0538,-2.0543,-2.0631,-2.0639,-2.0584,-2.0741,-2.0676,-2.0689,-2.0733,-2.0753,-2.0769,-2.0766,-2.0512,0,0,0,0,0,-2.0439,-2.0487,-2.0489,-2.0573,-2.0585,-2.0574,-2.06,-2.0582,-2.0604,-2.0613,-2.062,-2.0644,-2.069,-2.0722,-2.0765,-2.0871,-2.0875,-2.0921,-2.0937,-2.095,-2.0962,-2.102,-2.104,-2.0818,-2.0818,-2.0818,0,0,-2.0501,-2.051,-2.0542,-2.059,-2.0605,-2.0657,-2.0582,-2.064,-2.0679,-2.0622,-2.07,-2.0706,-2.0731,-2.0826,-2.0868,-2.0836,-2.1024,-2.0962,-2.0972,-2.0977,-2.1031,-2.1053,-2.1071,-2.0824,-2.0823,-2.0822,0,0,-2.0641,-2.0652,-2.0723,-2.0739,-2.076,-2.0753,-2.077,-2.0783,-2.0785,-2.0862,-2.0821,-2.0867,-2.0947,-2.0967,-2.0987,-2.1134,-2.1102,-2.1149,-2.1233,-2.1289,-2.1307,-2.1322,-2.1376,-2.1395,-2.116,-2.1161,-2.1161,0,-2.0717,-2.0791,-2.0764,-2.0825,-2.0848,-2.0797,-2.087,-2.0886,-2.0922,-2.094,-2.0903,-2.1002,-2.1015,-2.1114,-2.115,-2.1168,-2.1188,-2.1147,-2.1306,-2.1321,-2.1335,-2.1386,-2.1406,-2.1166,-2.1166,-2.1165,-2.1165,0,-2.0883,-2.0936,-2.0991,-2.1025,-2.1054,-2.1121,-2.1105,-2.1138,-2.1117,-2.1114,-2.1194,-2.1207,-2.1252,-2.1274,-2.1255,-2.1371,-2.135,-2.131,-2.1244,-2.1363,-2.141,-2.1429,-2.1174,-2.1172,-2.1171,-2.1169,0,0,-2.108,-2.1097,-2.1118,-2.1133,-2.1153,-2.1194,-2.1258,-2.13,-2.133,-2.1356,-2.1411,-2.1479,-2.1442,-2.1465,-2.1448,-2.1497,-2.1614,-2.1451,-2.1451,-2.1482,-2.1744,-2.1775,-2.1798,-2.1591,-2.1595,-2.1598,-2.1742,0,-2.1221,-2.1331,-2.1308,-2.1416,-2.1465,-2.1417,-2.1473,-2.1493,-2.1491,-2.1534,-2.1532,-2.1581,-2.1528,-2.1542,-2.1588,-2.159,-2.1666,-2.1579,-2.1644,-2.1647,-2.1641,-2.1822,-2.1856,-2.1991,-2.176,-2.1763,-2.1765,0,-2.14,-2.1431,-2.1544,-2.1556,-2.1576,-2.1627,-2.1663,-2.1704,-2.1725,-2.172,-2.1746,-2.1719,-2.1785,-2.1717,-2.1808,-2.1749,-2.1774,-2.1778,-2.1783,-2.179,-2.1715,-2.1836,-2.2034,-2.2055,-2.1794,-2.1792,-2.179,0,-2.1534,-2.1604,-2.1681,-2.1695,-2.171,-2.1748,-2.1756,-2.1773,-2.18,-2.1832,-2.185,-2.189,-2.1913,-2.1945,-2.193,-2.1882,-2.2025,-2.1955,-2.2024,-2.2025,-2.2058,-2.2057,-2.2265,-2.2072,-2.2071,-2.2071,-2.2071,0,-2.1694,-2.1766,-2.1741,-2.1789,-2.1867,-2.1841,-2.192,-2.1923,-2.1939,-2.1987,-2.1948,-2.1994,-2.197,-2.2016,-2.2004,-2.2082,-2.2093,-2.2092,-2.2088,-2.2096,-2.2097,-2.2114,-2.2105,-2.2076,-2.2075,-2.2074,-2.2073,0,-2.1858,-2.1844,-2.1925,-2.1932,-2.1936,-2.1994,-2.2001,-2.2046,-2.2041,-2.2102,-2.2115,-2.2108,-2.2159,-2.2146,-2.2203,-2.2195,-2.2294,-2.2277,-2.2286,-2.2283,-2.2353,-2.2348,-2.2581,-2.2611,-2.2398,-2.24,-2.2401,0,-2.1962,-2.2016,-2.2029,-2.2057,-2.2068,-2.2115,-2.2141,-2.2117,-2.2147,-2.2175,-2.2217,-2.2264,-2.23,-2.2385,-2.2385,-2.2428,-2.2414,-2.2493,-2.242,-2.2427,-2.2417,-2.2414,-2.242,-2.2508,-2.251,-2.2512,-2.2514,0,-2.2149,-2.2139,-2.2178,-2.2215,-2.2247,-2.2275,-2.23,-2.2326,-2.2304,-2.2339,-2.239,-2.2418,-2.2474,-2.2522,-2.2562,-2.2572,-2.2541,-2.2536,-2.2555,-2.2565,-2.2568,-2.2568,-2.2327,-2.2532,-2.253,-2.2529,-2.2528,-2.2527,-2.2287,-2.2333,-2.2349,-2.2393,-2.2409,-2.2433,-2.2475,-2.2474,-2.2516,-2.2559,-2.2542,-2.2601,-2.2621,-2.267,-2.2685,-2.2731,-2.2702,-2.2728,-2.2735,-2.2743,-2.2752,-2.2559,-2.2738,-2.2738,-2.2737,-2.2737,-2.2736,0,-2.2473,-2.248,-2.2522,-2.2557,-2.2592,-2.2556,-2.2582,-2.2614,-2.2666,-2.2686,-2.2722,-2.2781,-2.2827,-2.283,-2.2874,-2.2911,-2.2897,-2.2923,-2.2921,-2.2924,-2.2775,-2.2756,-2.2933,-2.2933,-2.2933,-2.2933,-2.2933,-2.2933,-2.2574,-2.2649,-2.2641,-2.2724,-2.2731,-2.2787,-2.2805,-2.2827,-2.2843,-2.291,-2.2947,-2.2948,-2.2963,-2.3006,-2.3048,-2.3047,-2.3066,-2.3098,-2.3093,-2.2954,-2.2935,-2.2916,-2.2897,-2.3102,-2.3102,-2.3238,-2.3239,-2.324]},{"header":{"parameterUnit":"m.s-1","parameterCategory":1,"la1":30.2991,"la2":30.254,"lo1":-89.0895,"lo2":-89.0444,"dy":0.0017,"dx":0.0017,"nx":28,"ny":28,"refTime":"2024-02-01T09:00:00:Z","depth":0,"parameterNumber":3,"parameterNumberName":"V-component_of_WINDS"},"data":[0,0,0,0,0,0,0,0,0,0,0,0,0,0,0,0,0,0,0,0,0,0,0,0,0,0,0,0,0,0,0,0,0,0,0,0,0,0,0,0,0,0,0,0,0,0,0,0,0,0,0,0,0,0,0,0,0,0,-1.3993,-1.3993,0,-1.4021,-1.4021,-1.4021,-1.4005,-1.4004,-1.4004,-1.4003,-1.403,-1.4031,-1.4033,0,0,0,0,0,0,0,0,0,0,0,0,0,-1.3924,-1.3926,-1.3993,-1.3993,-1.3994,-1.4021,-1.4021,-1.4021,-1.4005,-1.4004,-1.4003,-1.4002,-1.4029,-1.4031,-1.4033,0,0,0,0,0,0,0,0,0,0,0,0,0,-1.3953,-1.3926,-1.3993,-1.3989,-1.3989,-1.4021,-1.4021,-1.4021,-1.4005,-1.4004,-1.4003,-1.4002,-1.4029,-1.4031,-1.4033,-1.407,0,0,-1.404,-1.4041,0,0,0,0,0,0,0,0,-1.3952,-1.3956,-1.3989,-1.3989,-1.3989,-1.4008,-1.4007,-1.4038,-1.4006,-1.3999,-1.4003,-1.4001,-1.4023,-1.4026,-1.4034,-1.4071,-1.4072,-1.404,-1.4041,-1.4042,-1.4043,0,0,0,0,0,0,0,-1.395,-1.3954,-1.4004,-1.399,-1.399,-1.3985,-1.3988,-1.4012,-1.4017,-1.4,-1.3999,-1.4002,-1.4023,-1.4032,-1.4034,-1.4073,-1.404,-1.4042,-1.4043,-1.4044,-1.414,-1.4141,0,0,0,0,0,0,-1.3948,-1.3953,-1.4003,-1.4005,-1.3967,-1.3987,-1.399,-1.4003,-1.4017,-1.4018,-1.4003,-1.4001,-1.4029,-1.4032,-1.4035,-1.4079,-1.4042,-1.4044,-1.4045,-1.4139,-1.4141,-1.4142,0,0,0,0,0,0,-1.3947,-1.3953,-1.4002,-1.3978,-1.3984,-1.399,-1.4004,-1.4004,-1.4013,-1.402,-1.402,-1.4011,-1.4028,-1.4032,-1.4061,-1.4079,-1.4045,-1.4047,-1.4138,-1.414,-1.4141,-1.4166,0,0,0,0,0,0,-1.3945,-1.3952,-1.3967,-1.3979,-1.3986,-1.4028,-1.4005,-1.4006,-1.4017,-1.4015,-1.4027,-1.4028,-1.4027,-1.4058,-1.4063,-1.4082,-1.4049,-1.4136,-1.4138,-1.4141,-1.4164,-1.4169,-1.4173,0,0,0,0,0,-1.3942,-1.3973,-1.3968,-1.3974,-1.4004,-1.4029,-1.4033,-1.4032,-1.4018,-1.4033,-1.4037,-1.4028,-1.4076,-1.4061,-1.4067,-1.4086,-1.4135,-1.4138,-1.414,-1.4162,-1.4168,-1.4173,0,0,0,0,0,0,-1.3962,-1.3974,-1.3969,-1.4004,-1.4016,-1.4027,-1.4045,-1.4038,-1.4054,-1.4051,-1.4048,-1.4051,-1.4081,-1.4086,-1.4069,-1.4122,-1.4103,-1.4108,-1.4117,-1.4123,-1.4128,-1.4126,-1.405,0,0,0,0,0,-1.3971,-1.3991,-1.4,-1.403,-1.4036,-1.4039,-1.405,-1.4048,-1.406,-1.4065,-1.4071,-1.4083,-1.41,-1.4112,-1.4129,-1.4164,-1.4166,-1.418,-1.4185,-1.4189,-1.4192,-1.4211,-1.4217,-1.4151,-1.4151,-1.4151,0,0,-1.3988,-1.3997,-1.401,-1.4034,-1.4043,-1.4063,-1.4044,-1.4066,-1.4081,-1.4068,-1.4096,-1.4101,-1.4113,-1.4146,-1.416,-1.4151,-1.4211,-1.4192,-1.4195,-1.4197,-1.4214,-1.422,-1.4226,-1.4153,-1.4153,-1.4153,0,0,-1.4031,-1.404,-1.4066,-1.4075,-1.4089,-1.4091,-1.4097,-1.4109,-1.4111,-1.4139,-1.413,-1.4147,-1.4178,-1.4187,-1.4196,-1.4241,-1.4233,-1.4246,-1.427,-1.4288,-1.4293,-1.4298,-1.4314,-1.4319,-1.425,-1.425,-1.425,0,-1.4051,-1.4082,-1.408,-1.4103,-1.4113,-1.4103,-1.4129,-1.4137,-1.4156,-1.4163,-1.4152,-1.419,-1.4198,-1.4232,-1.4243,-1.425,-1.4257,-1.4245,-1.4293,-1.4297,-1.4302,-1.4316,-1.4322,-1.4251,-1.4251,-1.4251,-1.4251,0,-1.4106,-1.4127,-1.4146,-1.4164,-1.4177,-1.4201,-1.4202,-1.4215,-1.4211,-1.4214,-1.4242,-1.4251,-1.4269,-1.4277,-1.4273,-1.431,-1.4304,-1.4293,-1.4274,-1.4309,-1.4323,-1.4329,-1.4254,-1.4253,-1.4253,-1.4252,0,0,-1.4162,-1.4179,-1.4186,-1.4194,-1.4208,-1.4224,-1.4247,-1.4265,-1.4276,-1.4288,-1.4307,-1.4333,-1.4323,-1.4333,-1.433,-1.4346,-1.4381,-1.4334,-1.4334,-1.4342,-1.4421,-1.4429,-1.4435,-1.4375,-1.4376,-1.4377,-1.442,0,-1.4206,-1.4247,-1.4245,-1.4284,-1.4303,-1.4293,-1.4313,-1.4323,-1.4326,-1.4342,-1.4345,-1.4363,-1.4349,-1.4355,-1.437,-1.4373,-1.4397,-1.437,-1.4392,-1.4393,-1.439,-1.4443,-1.4451,-1.4491,-1.4425,-1.4426,-1.4427,0,-1.4262,-1.4277,-1.4317,-1.4327,-1.4335,-1.4354,-1.4369,-1.4385,-1.4396,-1.4397,-1.4408,-1.4402,-1.4425,-1.4406,-1.4436,-1.4419,-1.4427,-1.443,-1.4432,-1.4434,-1.4412,-1.4446,-1.4504,-1.4509,-1.4435,-1.4435,-1.4434,0,-1.4299,-1.4328,-1.4356,-1.4363,-1.4376,-1.4389,-1.4395,-1.4405,-1.4416,-1.4429,-1.4436,-1.4452,-1.4461,-1.4473,-1.4472,-1.4458,-1.4503,-1.4483,-1.4504,-1.4504,-1.4514,-1.4513,-1.4573,-1.452,-1.452,-1.4519,-1.4519,0,-1.4347,-1.4372,-1.4373,-1.439,-1.4417,-1.4415,-1.4442,-1.4446,-1.4455,-1.4472,-1.4464,-1.448,-1.4478,-1.4494,-1.4493,-1.4518,-1.4522,-1.4523,-1.4523,-1.4524,-1.4524,-1.453,-1.4527,-1.4521,-1.4521,-1.452,-1.452,0,-1.4393,-1.4395,-1.4424,-1.4434,-1.4437,-1.4457,-1.4465,-1.448,-1.4482,-1.4504,-1.4509,-1.4512,-1.453,-1.453,-1.4551,-1.455,-1.4581,-1.4577,-1.4578,-1.4577,-1.4597,-1.4595,-1.4663,-1.4672,-1.4612,-1.4613,-1.4614,0,-1.4424,-1.4443,-1.4454,-1.4466,-1.4472,-1.449,-1.4501,-1.4499,-1.4511,-1.4524,-1.4538,-1.4556,-1.457,-1.4599,-1.4603,-1.4618,-1.4615,-1.4638,-1.4617,-1.4618,-1.4615,-1.4614,-1.4615,-1.4642,-1.4642,-1.4643,-1.4643,0,-1.4478,-1.4478,-1.4494,-1.451,-1.4524,-1.4536,-1.4548,-1.4557,-1.4556,-1.457,-1.4588,-1.4599,-1.462,-1.4638,-1.4653,-1.4658,-1.465,-1.465,-1.4655,-1.4657,-1.4656,-1.4656,-1.4588,-1.4648,-1.4648,-1.4647,-1.4647,-1.4647,-1.4517,-1.4533,-1.4544,-1.4562,-1.4571,-1.4582,-1.4597,-1.4601,-1.4616,-1.4634,-1.4631,-1.4652,-1.4662,-1.4681,-1.4687,-1.4703,-1.4695,-1.4703,-1.4705,-1.4707,-1.4709,-1.4653,-1.4706,-1.4706,-1.4706,-1.4705,-1.4705,0,-1.4571,-1.4577,-1.4594,-1.4611,-1.4624,-1.4617,-1.4629,-1.4641,-1.4659,-1.4669,-1.4683,-1.4704,-1.4721,-1.4725,-1.4741,-1.4753,-1.475,-1.4757,-1.4756,-1.4757,-1.4716,-1.4709,-1.4759,-1.4759,-1.4759,-1.4759,-1.4759,-1.4759,-1.4601,-1.4627,-1.4628,-1.4659,-1.4664,-1.4685,-1.4693,-1.4702,-1.471,-1.4734,-1.4748,-1.4751,-1.4759,-1.4775,-1.4789,-1.479,-1.4796,-1.4805,-1.4804,-1.4765,-1.476,-1.4755,-1.4749,-1.4806,-1.4806,-1.4844,-1.4845,-1.4845]}]]